When you browse on this site, cookies collect data to enhance your experience and personalize the content and advertising you see.
Visit our Privacy Policy to learn more. By continuing to use the site, you agree to this use of cookies and data.
  • In Deutschland
  • Länderverzeichnis
  • Für 7 Tage
  • Wassertemperatur
  • Wetterkarte
  • Widgets
  • user-avatar
    Anmelden

    Stündliche Wetter Hartford

    Heute, 23 September, Montag

    Zeit Temperatur Niederschläge Wind Luftdruck Luftfeuchtigkeit
    00:00 +14°C° 0 mm 2 m/S 749 mmHg 93%
    01:00 +14°C° 0 mm 2 m/S 749 mmHg 93%
    02:00 +13°C° 0 mm 2 m/S 749 mmHg 93%
    03:00 +13°C° 0 mm 2 m/S 750 mmHg 93%
    04:00 +13°C° 0 mm 2 m/S 750 mmHg 92%
    05:00 +13°C° 0 mm 2 m/S 751 mmHg 91%
    06:00 +13°C° 0 mm 2 m/S 751 mmHg 90%
    07:00 +13°C° 0 mm 3 m/S 751 mmHg 86%
    08:00 +13°C° 0 mm 3 m/S 751 mmHg 83%
    09:00 +14°C° 0 mm 4 m/S 752 mmHg 79%
    10:00 +15°C° 0 mm 4 m/S 752 mmHg 75%
    11:00 +17°C° 0 mm 4 m/S 752 mmHg 70%
    12:00 +17°C° 0 mm 5 m/S 752 mmHg 65%
    13:00 +17°C° 0 mm 5 m/S 751 mmHg 66%
    14:00 +19°C° 0 mm 6 m/S 751 mmHg 67%
    15:00 +19°C° 0 mm 6 m/S 751 mmHg 67%
    16:00 +17°C° 0.5 mm 6 m/S 750 mmHg 74%
    17:00 +16°C° 0.5 mm 7 m/S 750 mmHg 81%
    18:00 +14°C° 0.5 mm 7 m/S 749 mmHg 88%
    19:00 +15°C° 0 mm 7 m/S 749 mmHg 89%
    20:00 +15°C° 0 mm 6 m/S 749 mmHg 89%
    21:00 +15°C° 0 mm 6 m/S 749 mmHg 90%
    22:00 +15°C° 0.1 mm 6 m/S 749 mmHg 91%
    23:00 +15°C° 0.1 mm 5 m/S 749 mmHg 92%

    Morgen, 24 September, Dienstag

    Zeit Temperatur Niederschläge Wind Luftdruck Luftfeuchtigkeit
    00:00 +15°C° 0.1 mm 5 m/S 749 mmHg 94%
    01:00 +15°C° 0.2 mm 5 m/S 748 mmHg 94%
    02:00 +15°C° 0.2 mm 4 m/S 748 mmHg 94%
    03:00 +15°C° 0.2 mm 4 m/S 747 mmHg 94%
    04:00 +15°C° 0.4 mm 4 m/S 746 mmHg 94%
    05:00 +15°C° 0.4 mm 4 m/S 746 mmHg 94%
    06:00 +17°C° 0.4 mm 4 m/S 745 mmHg 93%
    07:00 +17°C° 1.9 mm 4 m/S 745 mmHg 92%
    08:00 +17°C° 1.9 mm 4 m/S 744 mmHg 91%
    09:00 +17°C° 1.9 mm 4 m/S 744 mmHg 90%
    10:00 +17°C° 3.8 mm 4 m/S 744 mmHg 91%
    11:00 +17°C° 3.8 mm 4 m/S 744 mmHg 92%
    12:00 +16°C° 3.8 mm 3 m/S 744 mmHg 93%
    13:00 +16°C° 2.3 mm 3 m/S 744 mmHg 90%
    14:00 +17°C° 2.3 mm 3 m/S 744 mmHg 87%
    15:00 +17°C° 2.3 mm 3 m/S 744 mmHg 83%
    16:00 +16°C° 0 mm 3 m/S 744 mmHg 83%
    17:00 +16°C° 0 mm 3 m/S 744 mmHg 84%
    18:00 +14°C° 0 mm 3 m/S 744 mmHg 84%
    19:00 +14°C° 0 mm 3 m/S 744 mmHg 85%
    20:00 +14°C° 0 mm 4 m/S 744 mmHg 86%
    21:00 +14°C° 0 mm 4 m/S 744 mmHg 88%
    22:00 +13°C° 0.2 mm 4 m/S 744 mmHg 89%
    23:00 +13°C° 0.2 mm 5 m/S 743 mmHg 90%

    übermorgen, 25 September, Mittwoch

    Zeit Temperatur Niederschläge Wind Luftdruck Luftfeuchtigkeit
    00:00 +13°C° 0.2 mm 5 m/S 743 mmHg 92%
    01:00 +13°C° 0.1 mm 4 m/S 743 mmHg 92%
    02:00 +13°C° 0.1 mm 4 m/S 743 mmHg 93%
    03:00 +13°C° 0.1 mm 3 m/S 743 mmHg 94%
    04:00 +14°C° 0 mm 2 m/S 743 mmHg 94%
    05:00 +14°C° 0 mm 2 m/S 743 mmHg 94%
    06:00 +14°C° 0 mm 1 m/S 743 mmHg 94%
    07:00 +14°C° 0 mm 1 m/S 743 mmHg 91%
    08:00 +15°C° 0 mm 1 m/S 744 mmHg 89%
    09:00 +16°C° 0 mm 1 m/S 744 mmHg 86%
    10:00 +18°C° 0 mm 1 m/S 744 mmHg 82%
    11:00 +18°C° 0 mm 1 m/S 745 mmHg 78%
    12:00 +18°C° 0 mm 2 m/S 745 mmHg 74%
    13:00 +18°C° 0.2 mm 2 m/S 745 mmHg 76%
    14:00 +18°C° 0.2 mm 2 m/S 745 mmHg 78%
    15:00 +18°C° 0.2 mm 3 m/S 745 mmHg 79%
    16:00 +17°C° 0.1 mm 2 m/S 746 mmHg 82%
    17:00 +16°C° 0.1 mm 2 m/S 746 mmHg 84%
    18:00 +15°C° 0.1 mm 1 m/S 746 mmHg 86%
    19:00 +15°C° 0.1 mm 2 m/S 746 mmHg 88%
    20:00 +15°C° 0.1 mm 2 m/S 745 mmHg 89%
    21:00 +13°C° 0.1 mm 3 m/S 745 mmHg 90%
    22:00 +14°C° 1.4 mm 4 m/S 745 mmHg 91%
    23:00 +15°C° 1.4 mm 5 m/S 744 mmHg 92%

    26 September, Donnerstag

    Zeit Temperatur Niederschläge Wind Luftdruck Luftfeuchtigkeit
    00:00 +15°C° 1.4 mm 6 m/S 744 mmHg 93%
    01:00 +15°C° 0.2 mm 6 m/S 744 mmHg 92%
    02:00 +15°C° 0.2 mm 5 m/S 743 mmHg 92%
    03:00 +15°C° 0.2 mm 4 m/S 743 mmHg 91%
    04:00 +15°C° 0.1 mm 4 m/S 743 mmHg 91%
    05:00 +15°C° 0.1 mm 5 m/S 743 mmHg 90%
    06:00 +14°C° 0.1 mm 5 m/S 744 mmHg 89%
    07:00 +14°C° 0 mm 5 m/S 744 mmHg 85%
    08:00 +14°C° 0 mm 6 m/S 744 mmHg 81%
    09:00 +14°C° 0 mm 6 m/S 745 mmHg 76%
    10:00 +15°C° 0.1 mm 6 m/S 745 mmHg 74%
    11:00 +15°C° 0.1 mm 6 m/S 745 mmHg 72%
    12:00 +16°C° 0.1 mm 6 m/S 745 mmHg 70%
    13:00 +16°C° 0.1 mm 6 m/S 745 mmHg 70%
    14:00 +16°C° 0.1 mm 6 m/S 745 mmHg 70%
    15:00 +16°C° 0.1 mm 7 m/S 745 mmHg 70%
    16:00 +16°C° 0.2 mm 6 m/S 745 mmHg 73%
    17:00 +15°C° 0.2 mm 6 m/S 745 mmHg 77%
    18:00 +14°C° 0.2 mm 6 m/S 745 mmHg 80%
    19:00 +13°C° 0 mm 5 m/S 746 mmHg 81%
    20:00 +13°C° 0 mm 5 m/S 746 mmHg 82%
    21:00 +12°C° 0 mm 5 m/S 747 mmHg 83%
    22:00 +12°C° 0 mm 4 m/S 746 mmHg 83%
    23:00 +12°C° 0 mm 4 m/S 746 mmHg 84%

    27 September, Freitag

    Zeit Temperatur Niederschläge Wind Luftdruck Luftfeuchtigkeit
    00:00 +12°C° 0 mm 4 m/S 746 mmHg 84%
    01:00 +12°C° 0.1 mm 4 m/S 746 mmHg 85%
    02:00 +12°C° 0.1 mm 4 m/S 746 mmHg 86%
    03:00 +12°C° 0.1 mm 4 m/S 746 mmHg 86%
    04:00 +12°C° 0.1 mm 4 m/S 746 mmHg 86%
    05:00 +11°C° 0.1 mm 4 m/S 746 mmHg 86%
    06:00 +11°C° 0.1 mm 4 m/S 746 mmHg 87%
    07:00 +12°C° 0 mm 5 m/S 745 mmHg 84%
    08:00 +13°C° 0 mm 5 m/S 745 mmHg 81%
    09:00 +14°C° 0 mm 6 m/S 745 mmHg 78%
    10:00 +14°C° 0.4 mm 6 m/S 745 mmHg 79%
    11:00 +14°C° 0.4 mm 7 m/S 745 mmHg 79%
    12:00 +14°C° 0.4 mm 7 m/S 744 mmHg 79%
    13:00 +14°C° 0.5 mm 7 m/S 744 mmHg 79%
    14:00 +14°C° 0.5 mm 7 m/S 744 mmHg 79%
    15:00 +14°C° 0.5 mm 7 m/S 744 mmHg 79%
    16:00 +14°C° 0.7 mm 6 m/S 744 mmHg 81%
    17:00 +13°C° 0.7 mm 6 m/S 744 mmHg 83%
    18:00 +12°C° 0.7 mm 5 m/S 744 mmHg 85%
    19:00 +12°C° 0.1 mm 4 m/S 744 mmHg 86%
    20:00 +11°C° 0.1 mm 4 m/S 745 mmHg 86%
    21:00 +11°C° 0.1 mm 4 m/S 745 mmHg 87%
    22:00 +11°C° 0 mm 4 m/S 745 mmHg 87%
    23:00 +10°C° 0 mm 4 m/S 745 mmHg 87%

    28 September, Samstag

    Zeit Temperatur Niederschläge Wind Luftdruck Luftfeuchtigkeit
    00:00 +10°C° 0 mm 4 m/S 746 mmHg 87%
    01:00 +9°C° 0 mm 5 m/S 746 mmHg 87%
    02:00 +9°C° 0 mm 5 m/S 746 mmHg 88%
    03:00 +9°C° 0 mm 5 m/S 746 mmHg 88%
    04:00 +9°C° 0.1 mm 5 m/S 746 mmHg 88%
    05:00 +9°C° 0.1 mm 5 m/S 747 mmHg 87%
    06:00 +9°C° 0.1 mm 5 m/S 747 mmHg 87%
    07:00 +9°C° 0 mm 5 m/S 747 mmHg 84%
    08:00 +10°C° 0 mm 5 m/S 747 mmHg 81%
    09:00 +11°C° 0 mm 6 m/S 748 mmHg 78%
    10:00 +13°C° 0.1 mm 6 m/S 748 mmHg 73%
    11:00 +14°C° 0.1 mm 6 m/S 748 mmHg 68%
    12:00 +15°C° 0.1 mm 6 m/S 748 mmHg 64%
    13:00 +15°C° 0 mm 6 m/S 748 mmHg 63%
    14:00 +15°C° 0 mm 5 m/S 748 mmHg 63%
    15:00 +15°C° 0 mm 5 m/S 748 mmHg 63%
    16:00 +14°C° 0 mm 4 m/S 748 mmHg 68%
    17:00 +13°C° 0 mm 3 m/S 749 mmHg 74%
    18:00 +12°C° 0 mm 3 m/S 749 mmHg 79%
    19:00 +12°C° 0 mm 2 m/S 749 mmHg 82%
    20:00 +10°C° 0 mm 2 m/S 749 mmHg 85%
    21:00 +10°C° 0 mm 2 m/S 749 mmHg 88%
    22:00 +10°C° 0 mm 2 m/S 749 mmHg 89%
    23:00 +10°C° 0 mm 2 m/S 749 mmHg 90%
    Mehr zeigen